[[{"header":{"parameterUnit":"m.s-1","parameterCategory":1,"la1":30.2991,"la2":30.254,"lo1":-89.0895,"lo2":-89.0444,"dy":0.0017,"dx":0.0017,"nx":28,"ny":28,"refTime":"2025-08-22T21:00:00:Z","depth":0,"parameterNumber":2,"parameterNumberName":"U-component_of_WINDS"},"data":[0,0,0,0,0,0,0,0,0,0,0,0,0,0,0,0,0,0,0,0,0,0,0,0,0,0,0,0,0,0,0,0,0,0,0,0,0,0,0,0,0,0,0,0,0,0,0,0,0,0,0,0,0,0,0,0,0,0,-0.7981,-0.7981,0,-0.795,-0.7949,-0.7949,-0.7927,-0.7927,-0.7927,-0.7927,-0.7895,-0.7894,-0.7894,0,0,0,0,0,0,0,0,0,0,0,0,0,-0.8024,-0.8023,-0.7981,-0.7981,-0.798,-0.795,-0.7949,-0.7949,-0.7927,-0.7927,-0.7927,-0.7927,-0.7895,-0.7895,-0.7894,0,0,0,0,0,0,0,0,0,0,0,0,0,-0.8,-0.8023,-0.7981,-0.7966,-0.7964,-0.795,-0.7949,-0.7949,-0.7927,-0.7927,-0.7927,-0.7927,-0.7896,-0.7895,-0.7894,-0.7892,0,0,-0.789,-0.789,0,0,0,0,0,0,0,0,-0.8002,-0.7999,-0.7969,-0.7967,-0.7965,-0.7942,-0.7953,-0.793,-0.7927,-0.7941,-0.7927,-0.7926,-0.7911,-0.7909,-0.7903,-0.7891,-0.7889,-0.789,-0.789,-0.7889,-0.7889,0,0,0,0,0,0,0,-0.8003,-0.8,-0.7969,-0.7968,-0.7966,-0.7961,-0.7957,-0.7948,-0.7928,-0.794,-0.7938,-0.7935,-0.791,-0.7904,-0.7902,-0.7889,-0.789,-0.7889,-0.7889,-0.7888,-0.7874,-0.7874,0,0,0,0,0,0,-0.8007,-0.8002,-0.797,-0.7968,-0.7983,-0.796,-0.7956,-0.795,-0.7928,-0.7924,-0.7935,-0.7934,-0.7906,-0.7904,-0.7901,-0.7898,-0.7889,-0.7888,-0.7888,-0.7873,-0.7874,-0.7874,0,0,0,0,0,0,-0.8008,-0.8005,-0.7971,-0.7984,-0.7979,-0.796,-0.7953,-0.7949,-0.7943,-0.7924,-0.7921,-0.7933,-0.7906,-0.7903,-0.7894,-0.7896,-0.7888,-0.7887,-0.7873,-0.7873,-0.7874,-0.7891,0,0,0,0,0,0,-0.801,-0.8005,-0.8004,-0.7984,-0.7979,-0.7964,-0.7953,-0.7949,-0.7942,-0.794,-0.7921,-0.7918,-0.7906,-0.7896,-0.7893,-0.7895,-0.7886,-0.7873,-0.7873,-0.7874,-0.789,-0.7892,-0.7893,0,0,0,0,0,-0.8011,-0.801,-0.8004,-0.8,-0.7977,-0.7964,-0.7961,-0.7947,-0.7942,-0.7941,-0.7929,-0.7919,-0.7897,-0.7896,-0.7892,-0.7893,-0.7873,-0.7873,-0.7874,-0.7889,-0.7892,-0.7893,0,0,0,0,0,0,-0.803,-0.8007,-0.8,-0.7993,-0.7981,-0.7961,-0.7959,-0.795,-0.7939,-0.7938,-0.792,-0.7916,-0.791,-0.7901,-0.79,-0.7891,-0.7884,-0.7883,-0.7897,-0.7899,-0.79,-0.7902,-0.7885,0,0,0,0,0,-0.8034,-0.8025,-0.8006,-0.8001,-0.7996,-0.7978,-0.7972,-0.7962,-0.7949,-0.7944,-0.7931,-0.7919,-0.791,-0.7904,-0.7894,-0.7889,-0.7885,-0.7889,-0.789,-0.7892,-0.7891,-0.7888,-0.789,-0.7875,-0.7875,-0.7875,0,0,-0.8041,-0.8027,-0.8023,-0.8005,-0.7994,-0.7986,-0.7974,-0.7966,-0.796,-0.7943,-0.7934,-0.7925,-0.791,-0.7904,-0.79,-0.7896,-0.7895,-0.7892,-0.7894,-0.7892,-0.7889,-0.789,-0.7892,-0.7876,-0.7876,-0.7876,0,0,-0.8049,-0.8038,-0.8033,-0.8023,-0.8007,-0.7996,-0.7995,-0.7976,-0.7969,-0.796,-0.7947,-0.794,-0.7924,-0.7915,-0.7908,-0.7913,-0.7904,-0.7911,-0.7919,-0.7916,-0.7917,-0.7918,-0.792,-0.7921,-0.7911,-0.7911,-0.7911,0,-0.8059,-0.8046,-0.8031,-0.8024,-0.8016,-0.8001,-0.7996,-0.7987,-0.7969,-0.7965,-0.796,-0.794,-0.7929,-0.792,-0.7922,-0.7917,-0.7915,-0.7912,-0.7918,-0.7919,-0.792,-0.7921,-0.7922,-0.7912,-0.7912,-0.7912,-0.7912,0,-0.806,-0.8051,-0.8049,-0.8032,-0.8024,-0.8018,-0.8003,-0.7997,-0.7988,-0.7977,-0.7969,-0.7956,-0.7943,-0.794,-0.7932,-0.793,-0.7928,-0.7921,-0.7913,-0.7922,-0.7923,-0.7924,-0.7913,-0.7913,-0.7913,-0.7912,0,0,-0.8078,-0.8053,-0.8053,-0.8045,-0.8027,-0.802,-0.8014,-0.8001,-0.7997,-0.7986,-0.798,-0.7967,-0.7961,-0.7953,-0.7943,-0.7941,-0.7946,-0.7934,-0.7934,-0.7936,-0.7944,-0.7948,-0.7949,-0.794,-0.794,-0.794,-0.7945,0,-0.8083,-0.807,-0.8057,-0.8048,-0.804,-0.8026,-0.8021,-0.8009,-0.8,-0.7992,-0.7981,-0.7972,-0.7965,-0.796,-0.7957,-0.7946,-0.7947,-0.7946,-0.7934,-0.7934,-0.7937,-0.795,-0.7955,-0.7959,-0.7945,-0.7945,-0.7945,0,-0.8087,-0.8076,-0.8067,-0.805,-0.8046,-0.8041,-0.8029,-0.8022,-0.8009,-0.8002,-0.7994,-0.7983,-0.7977,-0.797,-0.7961,-0.796,-0.7955,-0.7949,-0.7949,-0.7946,-0.794,-0.7947,-0.7961,-0.7961,-0.7946,-0.7946,-0.7946,0,-0.81,-0.8083,-0.8076,-0.807,-0.805,-0.8047,-0.8039,-0.8026,-0.802,-0.8009,-0.8005,-0.7994,-0.7988,-0.798,-0.7967,-0.7964,-0.7959,-0.7952,-0.7953,-0.7954,-0.7952,-0.7952,-0.7964,-0.795,-0.795,-0.795,-0.795,0,-0.8107,-0.8101,-0.8082,-0.8077,-0.8071,-0.8056,-0.8051,-0.8042,-0.8031,-0.8024,-0.8012,-0.8006,-0.799,-0.7983,-0.7973,-0.7966,-0.7964,-0.7958,-0.7956,-0.7959,-0.796,-0.7955,-0.7954,-0.795,-0.795,-0.795,-0.795,0,-0.812,-0.8107,-0.8097,-0.808,-0.8076,-0.8072,-0.8057,-0.8052,-0.8042,-0.8034,-0.8032,-0.8016,-0.8007,-0.7994,-0.7981,-0.7974,-0.7969,-0.7965,-0.7973,-0.7971,-0.7973,-0.7973,-0.7982,-0.7982,-0.7969,-0.7969,-0.7969,0,-0.8125,-0.812,-0.8103,-0.8097,-0.8089,-0.8081,-0.8074,-0.806,-0.8054,-0.804,-0.8037,-0.8027,-0.8017,-0.8003,-0.7991,-0.7981,-0.7977,-0.798,-0.7975,-0.7978,-0.7976,-0.7976,-0.7976,-0.7981,-0.7982,-0.7982,-0.7982,0,-0.8134,-0.8128,-0.8118,-0.8107,-0.8099,-0.809,-0.808,-0.8076,-0.806,-0.8054,-0.8044,-0.8037,-0.8024,-0.8014,-0.8002,-0.7994,-0.7986,-0.7984,-0.7984,-0.7986,-0.7991,-0.7988,-0.7976,-0.7984,-0.7983,-0.7983,-0.7983,-0.7983,-0.8143,-0.8138,-0.8125,-0.8115,-0.8106,-0.8097,-0.8092,-0.8082,-0.8073,-0.8061,-0.8053,-0.8044,-0.8032,-0.8016,-0.8008,-0.8001,-0.7998,-0.7997,-0.7997,-0.7997,-0.7998,-0.7993,-0.7999,-0.7999,-0.7999,-0.7999,-0.7999,0,-0.8151,-0.8142,-0.8133,-0.8119,-0.8112,-0.8104,-0.8093,-0.8087,-0.8079,-0.8069,-0.806,-0.8049,-0.804,-0.8027,-0.8017,-0.8014,-0.8009,-0.8011,-0.8011,-0.8009,-0.8002,-0.8003,-0.8015,-0.8015,-0.8015,-0.8015,-0.8015,-0.8015,-0.8154,-0.8146,-0.8139,-0.8126,-0.8118,-0.8108,-0.8102,-0.8094,-0.8086,-0.8074,-0.8066,-0.8058,-0.8047,-0.8036,-0.8027,-0.8023,-0.802,-0.8023,-0.8019,-0.8011,-0.801,-0.8009,-0.8009,-0.8023,-0.8023,-0.8027,-0.8027,-0.8027]},{"header":{"parameterUnit":"m.s-1","parameterCategory":1,"la1":30.2991,"la2":30.254,"lo1":-89.0895,"lo2":-89.0444,"dy":0.0017,"dx":0.0017,"nx":28,"ny":28,"refTime":"2025-08-22T21:00:00:Z","depth":0,"parameterNumber":3,"parameterNumberName":"V-component_of_WINDS"},"data":[0,0,0,0,0,0,0,0,0,0,0,0,0,0,0,0,0,0,0,0,0,0,0,0,0,0,0,0,0,0,0,0,0,0,0,0,0,0,0,0,0,0,0,0,0,0,0,0,0,0,0,0,0,0,0,0,0,0,1.5133,1.5133,0,1.5163,1.5163,1.5164,1.5173,1.5173,1.5173,1.5173,1.5203,1.5204,1.5205,0,0,0,0,0,0,0,0,0,0,0,0,0,1.5084,1.5085,1.5133,1.5133,1.5134,1.5163,1.5163,1.5164,1.5173,1.5173,1.5173,1.5173,1.5202,1.5204,1.5205,0,0,0,0,0,0,0,0,0,0,0,0,0,1.5109,1.5085,1.5133,1.5142,1.5143,1.5163,1.5163,1.5164,1.5173,1.5173,1.5173,1.5173,1.5202,1.5203,1.5205,1.5218,0,0,1.5209,1.521,0,0,0,0,0,0,0,0,1.5107,1.5111,1.514,1.5141,1.5143,1.5164,1.5157,1.5182,1.5173,1.5162,1.5173,1.5172,1.519,1.5192,1.5198,1.5219,1.522,1.5209,1.521,1.5211,1.5211,0,0,0,0,0,0,0,1.5106,1.5109,1.5145,1.5141,1.5142,1.5145,1.5148,1.5162,1.5177,1.5163,1.5163,1.5167,1.5191,1.5197,1.5199,1.5221,1.5209,1.521,1.5211,1.5212,1.5254,1.5254,0,0,0,0,0,0,1.5102,1.5108,1.5144,1.5146,1.5124,1.5146,1.5149,1.5157,1.5177,1.5179,1.5167,1.5167,1.5195,1.5198,1.52,1.5217,1.5211,1.5212,1.5213,1.5254,1.5254,1.5254,0,0,0,0,0,0,1.5101,1.5106,1.5143,1.5127,1.5132,1.5147,1.5156,1.5158,1.5165,1.518,1.5183,1.5171,1.5195,1.5198,1.5213,1.5218,1.5213,1.5214,1.5253,1.5254,1.5254,1.5249,0,0,0,0,0,0,1.51,1.5105,1.511,1.5127,1.5133,1.5155,1.5156,1.5159,1.5167,1.5168,1.5184,1.5187,1.5195,1.5211,1.5215,1.522,1.5215,1.5253,1.5254,1.5254,1.5249,1.525,1.525,0,0,0,0,0,1.5098,1.5107,1.511,1.5115,1.5139,1.5155,1.5159,1.5168,1.5167,1.5172,1.5182,1.5186,1.5217,1.5213,1.5217,1.5222,1.5253,1.5253,1.5254,1.5249,1.525,1.525,0,0,0,0,0,0,1.509,1.511,1.5113,1.5128,1.514,1.5157,1.5164,1.5168,1.518,1.518,1.5191,1.5195,1.5209,1.5217,1.5212,1.5236,1.5235,1.5237,1.523,1.5231,1.5231,1.5228,1.5216,0,0,0,0,0,1.509,1.5102,1.5118,1.513,1.5136,1.5149,1.5156,1.5162,1.5175,1.518,1.5191,1.5203,1.5216,1.5224,1.5236,1.5251,1.5255,1.5257,1.5257,1.5257,1.5258,1.5267,1.5268,1.5256,1.5256,1.5256,0,0,1.509,1.5102,1.5109,1.5129,1.5139,1.515,1.5153,1.5165,1.5174,1.5182,1.5197,1.5206,1.522,1.5235,1.5242,1.5242,1.5262,1.5258,1.5258,1.5259,1.5268,1.5269,1.527,1.5257,1.5257,1.5257,0,0,1.5096,1.5107,1.5118,1.5128,1.5143,1.5152,1.5154,1.5171,1.5177,1.5192,1.5199,1.5209,1.5231,1.5241,1.5249,1.5259,1.5263,1.5263,1.5265,1.5273,1.5274,1.5275,1.5279,1.528,1.5264,1.5264,1.5264,0,1.5094,1.5112,1.5123,1.5135,1.5143,1.5152,1.5163,1.5172,1.519,1.5196,1.5196,1.5223,1.5234,1.5251,1.5254,1.526,1.5264,1.5261,1.5273,1.5274,1.5275,1.5279,1.528,1.5264,1.5264,1.5264,1.5264,0,1.5109,1.5121,1.5128,1.5146,1.5156,1.5167,1.5179,1.5188,1.5194,1.5202,1.5218,1.5231,1.5246,1.5251,1.5256,1.5269,1.5269,1.5271,1.527,1.5276,1.5279,1.5281,1.5264,1.5264,1.5264,1.5264,0,0,1.511,1.5134,1.5136,1.5145,1.5162,1.5172,1.5184,1.5199,1.5206,1.5219,1.523,1.5248,1.525,1.5259,1.5266,1.5273,1.5281,1.5274,1.5275,1.5275,1.5296,1.5295,1.5296,1.5284,1.5285,1.5285,1.5295,0,1.5118,1.514,1.515,1.5167,1.5179,1.5188,1.5198,1.521,1.5219,1.523,1.524,1.5253,1.5255,1.526,1.5268,1.5278,1.5285,1.5278,1.5294,1.5294,1.5289,1.5298,1.5296,1.5305,1.5297,1.5297,1.5297,0,1.513,1.5143,1.5162,1.5178,1.5184,1.5193,1.5208,1.5218,1.5233,1.5239,1.5249,1.5256,1.5269,1.5268,1.5287,1.5282,1.5289,1.5295,1.5296,1.5297,1.5296,1.5299,1.5308,1.5309,1.53,1.5299,1.5299,0,1.5129,1.5151,1.5165,1.5172,1.5192,1.5198,1.5207,1.5221,1.5229,1.5242,1.5248,1.5263,1.5271,1.5282,1.5293,1.5291,1.531,1.531,1.5316,1.5315,1.5319,1.5318,1.5328,1.5324,1.5324,1.5324,1.5324,0,1.5136,1.5147,1.5164,1.5173,1.5186,1.5197,1.521,1.5219,1.5231,1.5242,1.5251,1.5261,1.5274,1.5286,1.5295,1.5309,1.5313,1.5318,1.532,1.5317,1.5316,1.5321,1.5321,1.5325,1.5325,1.5324,1.5324,0,1.5137,1.5148,1.5164,1.5182,1.5187,1.5195,1.5211,1.5219,1.5229,1.5242,1.5246,1.5261,1.5276,1.5288,1.5307,1.5312,1.5327,1.533,1.5322,1.5323,1.5328,1.5327,1.5341,1.5344,1.5338,1.5338,1.5338,0,1.514,1.5149,1.5168,1.5176,1.5184,1.5196,1.5205,1.5217,1.5226,1.5244,1.525,1.5265,1.5278,1.5301,1.5313,1.5328,1.5331,1.5335,1.5333,1.533,1.5331,1.533,1.5331,1.5335,1.5335,1.5335,1.5335,0,1.5146,1.5151,1.5164,1.5178,1.5189,1.5201,1.5213,1.5219,1.5234,1.5244,1.5258,1.5268,1.5288,1.5303,1.5319,1.5328,1.5334,1.5335,1.5337,1.5334,1.5329,1.5332,1.5322,1.5335,1.5335,1.5335,1.5335,1.5335,1.5148,1.5156,1.517,1.5184,1.5195,1.5206,1.5215,1.5226,1.5239,1.5255,1.5262,1.5277,1.5292,1.5314,1.5324,1.5336,1.5337,1.534,1.534,1.5341,1.534,1.5328,1.5339,1.5339,1.5339,1.5339,1.5339,0,1.5153,1.5163,1.5176,1.5193,1.5204,1.5209,1.5223,1.5231,1.5245,1.5258,1.527,1.5287,1.5302,1.5316,1.5332,1.5339,1.5342,1.5343,1.5342,1.5344,1.5339,1.5335,1.534,1.534,1.534,1.534,1.534,1.534,1.5158,1.5172,1.5179,1.5198,1.5208,1.5223,1.5231,1.5242,1.5252,1.5271,1.5283,1.5292,1.5306,1.5323,1.5337,1.5341,1.5346,1.5346,1.535,1.5345,1.5344,1.5344,1.5341,1.5347,1.5347,1.5355,1.5355,1.5355]}]]